Weather History for Memphis, TN

Change the Weather History Date:

Wednesday, July 31, 2013

  Actual Average Record
Temperature  
Mean Temperature 83 °F 83 °F  
Max Temperature 91 °F 92 °F 104 °F (1986)
Min Temperature 75 °F 74 °F 57 °F (1971)
Degree Days  
Heating Degree Days 0 0  
Month to date heating degree days 0 0  
Since 1 June heating degree days 0 0  
Since 1 July heating degree days 0 0  
Cooling Degree Days 18 18  
Month to date cooling degree days 485 549  
Year to date cooling degree days 1220 1308  
Since 1 June cooling degree days 935 987  
Growing Degree Days 33 (Base 50)    
Moisture  
Dew Point 73 °F    
Average Humidity 73    
Maximum Humidity 87    
Minimum Humidity 59    
Precipitation  
Precipitation 0.30 in 0.14 in 4.14 in (1996)
Month to date precipitation 3.73 4.59  
Year to date precipitation 43.78 32.50  
Snow  
Snow 0.00 in 0.00 in - ()
Month to date snowfall 0.0 0.0  
Since 1 June snowfall 0.0 0.0  
Since 1 July snowfall 0.0 0.0  
Snow Depth 0.00 in    
Sea Level Pressure  
Sea Level Pressure 29.99 in    
Wind  
Wind Speed 5 mph (WSW)    
Max Wind Speed 14 mph    
Max Gust Speed 18 mph    
Visibility 9 miles    
Events Rain , Thunderstorm    
T = Trace of Precipitation, MM = Missing Value Source: NWS Daily Summary

Daily Weather History Graph

Daily Weather History Graph

Search for Another Location

Airport:

Trip Planner

Search our weather history database for the weather conditions in past years. The results will help you decide how hot, cold, wet, or windy it might be!

Date:

Astronomy

Jul. 31, 2013 Rise Set
Actual Time 6:08 AM CDT 8:03 PM CDT
Civil Twilight 5:40 AM CDT 8:31 PM CDT
Nautical Twilight 5:06 AM CDT 9:05 PM CDT
Astronomical Twilight 4:30 AM CDT 9:40 PM CDT
Moon 1:03 AM CDT (7/31) 3:19 PM CDT (7/31)
Length of Visible Light 14h 50m
Length of Day
13h 54m
Waning Crescent, 31% of the Moon is Illuminated
Jul 31
Waning Crescent
Aug 6
New
Aug 14
First Quarter
Aug 20
Full
Aug 28
Last Quarter

Hourly Weather History & Observations

Time (CDT) Temp. Heat Index Dew Point Humidity Pressure Visibility Wind Dir Wind Speed Gust Speed Precip Events Conditions
12:54 AM 79.0 °F - 70.0 °F 74% 30.03 in 10.0 mi SSW 5.8 mph - N/A   Mostly Cloudy
1:54 AM 79.0 °F - 70.0 °F 74% 30.02 in 10.0 mi SSW 5.8 mph - N/A   Mostly Cloudy
2:54 AM 78.1 °F - 71.1 °F 79% 30.01 in 10.0 mi SSW 4.6 mph - N/A   Overcast
3:54 AM 79.0 °F - 70.0 °F 74% 30.00 in 9.0 mi SSW 4.6 mph - N/A   Overcast
4:54 AM 78.1 °F - 71.1 °F 79% 30.00 in 10.0 mi SSW 4.6 mph - 0.01 in   Overcast
5:54 AM 79.0 °F - 71.1 °F 77% 30.01 in 9.0 mi Calm Calm - N/A   Overcast
6:35 AM 77.0 °F - 71.6 °F 83% 30.03 in 6.0 mi WSW 4.6 mph - 0.00 in Rain , Thunderstorm Light Thunderstorms and Rain
6:54 AM 75.0 °F - 71.1 °F 87% 30.03 in 3.0 mi Calm Calm - 0.03 in Rain Heavy Rain
7:54 AM 75.0 °F - 72.0 °F 90% 30.04 in 7.0 mi SW 3.5 mph - 0.18 in Rain Light Rain
8:54 AM 75.9 °F - 72.0 °F 87% 30.05 in 8.0 mi SW 3.5 mph - 0.05 in Rain Light Rain
9:54 AM 75.9 °F - 72.0 °F 87% 30.05 in 7.0 mi West 8.1 mph - 0.02 in Rain Light Rain
10:54 AM 79.0 °F - 73.9 °F 84% 30.03 in 10.0 mi SW 5.8 mph - 0.01 in   Mostly Cloudy
11:54 AM 82.9 °F 88.8 °F 73.0 °F 72% 30.02 in 10.0 mi WSW 9.2 mph - N/A   Scattered Clouds
12:54 PM 87.1 °F 96.3 °F 75.0 °F 67% 30.00 in 10.0 mi WSW 6.9 mph - N/A   Scattered Clouds
1:54 PM 88.0 °F 96.5 °F 73.9 °F 63% 29.98 in 10.0 mi West 10.4 mph - N/A   Scattered Clouds
2:54 PM 90.0 °F 99.0 °F 73.9 °F 59% 29.96 in 10.0 mi WNW 5.8 mph - N/A   Mostly Cloudy
3:54 PM 90.0 °F 97.9 °F 73.0 °F 57% 29.94 in 10.0 mi WSW 10.4 mph - N/A   Scattered Clouds
4:54 PM 87.1 °F 94.5 °F 73.0 °F 63% 29.95 in 10.0 mi West 8.1 mph - N/A   Mostly Cloudy
5:27 PM 86.0 °F 93.4 °F 73.4 °F 66% 29.95 in 10.0 mi WNW 5.8 mph - N/A Thunderstorm Thunderstorm
5:54 PM 84.9 °F 92.1 °F 73.9 °F 69% 29.91 in 10.0 mi WNW 10.4 mph - N/A Thunderstorm Thunderstorm
6:09 PM 86.0 °F 95.1 °F 75.2 °F 70% 29.93 in 10.0 mi West 4.6 mph - N/A   Mostly Cloudy
6:40 PM 84.2 °F 92.3 °F 75.2 °F 74% 29.95 in 10.0 mi NNE 11.5 mph - N/A   Mostly Cloudy
6:54 PM 84.9 °F 93.3 °F 75.0 °F 72% 29.94 in 10.0 mi NE 6.9 mph - N/A   Mostly Cloudy
7:54 PM 82.9 °F 88.0 °F 72.0 °F 69% 29.95 in 10.0 mi Calm Calm - N/A   Scattered Clouds
8:54 PM 81.0 °F 85.8 °F 73.0 °F 77% 29.96 in 10.0 mi Calm Calm - N/A   Partly Cloudy
9:54 PM 80.1 °F 84.2 °F 73.0 °F 79% 29.97 in 10.0 mi NNE 3.5 mph - N/A   Partly Cloudy
10:54 PM 79.0 °F - 73.9 °F 84% 29.98 in 10.0 mi Calm Calm - N/A   Partly Cloudy
11:54 PM 77.0 °F - 72.0 °F 84% 29.99 in 10.0 mi WSW 3.5 mph - N/A   Partly Cloudy